Content
SEND FEEDBACK

Daily
Averages
Monthly
Summary
United States of America

POTTS JUNCTION, GUAM


Home > North America > United States > Guam
Elevation: 110 meters     Latitude: 13 33N     Longitude: 144 50E

WEATHER
 
SELECT A DAY
Number of Records: 215,513;   Date Range: 1/1/95 - 12/17/14
 
SHARE

PRINT THIS DATA

[ ← Previous Day ]
WEATHER ALMANAC - 8 MARCH, 2013
[ Next Day → ]
[ °F ]   °C
Weather ElementAverageHighLow
Temperature28.7 °C31.7 °C (1:54 pm)27 °C (3:50 am)
Dewpoint22.1 °C23 °C (8:02 am)21.1 °C (11:54 am)
Humidity67.6 %74 % (3:50 am)55 % (1:54 pm)
Barometer1012.9 hPa1015.2 hPa (8:02 am)1010.2 hPa (3:54 pm)
Wind Speed20 km/h31.5 km/h (3:54 pm)
Wind Gust40.7 km/h (11:54 am)
Weather ElementAverage
Visibility15.9 km
Wind DirectionE (86.1 °)

Weather ElementTotal
Precipitation0.76 mm
Cooling Degree Days11.1 (Base 18.3)
Growing Degree Days19.4 (Base 10)
Averaged from 28 records on 8 March, 2013
WEATHER CONDITIONS BREAKOUT
WIND DIRECTION BREAKOUT
WEATHER BY HOUR - 8 MARCH, 2013
[ °F ]   °C
Local TimeTemperatureDewpointHumidityBarometerVisibilityWind DirectionWind SpeedGust SpeedPrecipitationEventsConditions
1:54 AM27.8 °C22.2 °C71 %1012.9 hPa16.1 kmENE (70°)22.2 km/hPartly Cloudy
2:54 AM27.2 °C21.7 °C72 %1012.5 hPa16.1 kmEast (80°)20.4 km/hPartly Cloudy
3:50 AM27 °C22 °C74 %1013.2 hPa16.1 kmEast (80°)14.8 km/hMostly Cloudy
3:54 AM27.2 °C22.2 °C74 %1012.5 hPa16.1 kmEast (80°)16.7 km/hMostly Cloudy
4:05 AM28 °C22 °C70 %1013.2 hPa16.1 kmEast (80°)20.4 km/hMostly Cloudy
4:15 AM28 °C22 °C70 %1013.2 hPa16.1 kmEast (80°)18.5 km/hMostly Cloudy
4:54 AM27.2 °C21.7 °C72 %1012.5 hPa16.1 kmEast (80°)14.8 km/hMostly Cloudy
5:54 AM27.2 °C22.2 °C74 %1012.9 hPa16.1 kmEast (80°)14.8 km/hScattered Clouds
6:54 AM27.8 °C22.2 °C71 %1013.9 hPa16.1 kmEast (90°)25.9 km/h31.5 km/hScattered Clouds
7:54 AM27.8 °C22.8 °C74 %1014.6 hPa12.9 kmEast (100°)20.4 km/h31.5 km/h0 mmRainLight Rain
8:02 AM28 °C23 °C74 %1015.2 hPa12.9 kmEast (90°)18.5 km/h0.25 mmRainLight Rain
8:10 AM28 °C23 °C74 %1015.2 hPa16.1 kmEast (90°)18.5 km/h0.25 mmMostly Cloudy
8:54 AM28.9 °C22.8 °C69 %1014.9 hPa16.1 kmEast (100°)25.9 km/h35.2 km/h0.25 mmScattered Clouds
9:54 AM30 °C22.2 °C63 %1014.9 hPa16.1 kmEast (90°)24.1 km/h35.2 km/hScattered Clouds
10:54 AM31.1 °C21.7 °C57 %1014.2 hPa16.1 kmEast (90°)24.1 km/h38.9 km/hClear
11:54 AM30.6 °C21.1 °C57 %1013.2 hPa16.1 kmEast (100°)29.6 km/h40.7 km/hClear
12:54 PM31.1 °C21.7 °C57 %1012.2 hPa16.1 kmEast (100°)25.9 km/h38.9 km/hClear
1:54 PM31.7 °C21.7 °C55 %1011.5 hPa16.1 kmEast (90°)27.8 km/h37 km/hPartly Cloudy
2:54 PM30.6 °C21.7 °C59 %1011.2 hPa16.1 kmEast (100°)25.9 km/h40.7 km/hClear
3:54 PM30.6 °C21.7 °C59 %1010.2 hPa16.1 kmENE (70°)31.5 km/h40.7 km/hPartly Cloudy
4:54 PM30 °C21.7 °C61 %1010.5 hPa16.1 kmEast (90°)25.9 km/h37 km/hPartly Cloudy
5:54 PM29.4 °C21.7 °C63 %1011.2 hPa16.1 kmEast (80°)22.2 km/h31.5 km/hPartly Cloudy
6:54 PM27.8 °C22.2 °C71 %1011.5 hPa16.1 kmEast (80°)11.1 km/hScattered Clouds
7:54 PM27.8 °C22.2 °C71 %1012.5 hPa16.1 kmEast (90°)9.3 km/hScattered Clouds
8:54 PM27.8 °C22.2 °C71 %1012.9 hPa16.1 kmEast (90°)14.8 km/hPartly Cloudy
9:54 PM27.8 °C22.2 °C71 %1013.5 hPa16.1 kmEast (80°)11.1 km/hScattered Clouds
10:54 PM27.8 °C22.2 °C71 %1013.9 hPa16.1 kmEast (80°)13 km/hPartly Cloudy
11:54 PM27.8 °C21.7 °C69 %1013.9 hPa16.1 kmEast (80°)11.1 km/hClear
Hourly data recorded from PGUM, located 0 kilometers away from Potts Junction, Guam







STORIES FROM OUR PARTNERS